Simultaneous Nadir Overpasses (SNOs) Predictions

Prediction of SNOs between NOAA-20 and TERRA Satellite Orbit:

Table of predicted SNOs for the next 14.0 days since TLE Epoch: 5/4/2024
Index Date (NOAA-20) Time (NOAA-20) Lat,Lon (NOAA-20) SZA (NOAA-20 ) Date (TERRA) Time (TERRA) Lat,Lon (TERRA) SZA (TERRA ) Distance(km) Time Diff (sec)
1 05/06/2024 11:45:17 72.14, -3.24 55.40 05/06/2024 11:45:50 72.13, -3.22 55.39 0.79 33
2 05/06/2024 12:35:59 -72.03, 164.29 124.73 05/06/2024 12:35:14 -72.03, 164.27 124.72 1.06 45
3 05/08/2024 23:48:23 -72.14, -4.03 125.27 05/08/2024 23:48:42 -72.13, -3.97 125.29 2.58 19
4 05/09/2024 00:39:06 72.01, 163.53 54.58 05/09/2024 00:38:04 72.04, 163.53 54.61 2.65 62
5 05/11/2024 11:00:54 -72.63,-173.08 125.40 05/11/2024 11:02:04 -72.53,-171.68 125.56 48.10 70
6 05/11/2024 11:51:29 72.09, -4.71 54.02 05/11/2024 11:51:32 72.10, -4.77 54.03 2.26 3
7 05/11/2024 12:42:10 -71.92, 162.92 126.17 05/11/2024 12:40:57 -71.96, 162.65 126.11 10.11 73
8 05/13/2024 23:03:52 72.17,-172.97 53.50 05/13/2024 23:04:59 72.19,-173.02 53.51 2.59 67
9 05/13/2024 23:54:35 -72.11, -5.53 126.58 05/13/2024 23:54:23 -72.12, -5.49 126.57 1.61 12
10 05/14/2024 00:45:04 71.25, 163.33 52.51 05/14/2024 00:43:58 71.29, 160.82 52.66 90.08 66
11 05/16/2024 11:06:58 -72.20,-173.79 127.06 05/16/2024 11:07:50 -72.19,-173.77 127.08 1.19 52
12 05/16/2024 11:57:41 72.07, -6.24 52.80 05/16/2024 11:57:12 72.07, -6.32 52.81 2.67 29



Historial Predications of SNOs between NOAA-20 and TERRA
